Pine Bluff, AR

6:30 AM CDT on May 30, 2017 (GMT -0500)
Grider

Weather History for KPBF - May, 2012

Change the Weather History Date:

Tuesday, May 1, 2012

  Actual Average Record
Temperature  
Mean Temperature 79 °F 67 °F  
Max Temperature 88 °F 78 °F 95 °F (1901)
Min Temperature 69 °F 57 °F 38 °F (1909)
Degree Days  
Heating Degree Days 0 2  
Month to date heating degree days 0 2  
Since 1 July heating degree days 2206 2866  
Cooling Degree Days 14 4  
Month to date cooling degree days 14 4  
Year to date cooling degree days 202 91  
Growing Degree Days 28 (Base 50)    
Moisture  
Dew Point 65 °F    
Average Humidity 67    
Maximum Humidity 90    
Minimum Humidity 43    
Precipitation  
Precipitation 0.00 in 0.17 in 5.15 in (1958)
Month to date precipitation 0.00 0.17  
Year to date precipitation 12.30 18.32  
Snow  
Snow 0.00 in 0.00 in - ()
Month to date snowfall 0.0 0.0  
Since 1 July snowfall 0.5 3.1  
Snow Depth 0.00 in    
Sea Level Pressure  
Sea Level Pressure 29.95 in    
Wind  
Wind Speed 9 mph (South)    
Max Wind Speed 20 mph    
Max Gust Speed 24 mph    
Visibility 10 miles    
Events      
T = Trace of Precipitation, MM = Missing Value Source: NWS Daily Summary

Daily Weather History Graph

Daily Weather History Graph

Search for Another Location

Airport or City:

Trip Planner

Search our weather history database for the weather conditions in past years. The results will help you decide how hot, cold, wet, or windy it might be!

Date:

Astronomy

May. 01, 2012 Rise Set
Actual Time 6:17 AM CDT 7:52 PM CDT
Civil Twilight 5:51 AM CDT 8:19 PM CDT
Nautical Twilight 5:18 AM CDT 8:51 PM CDT
Astronomical Twilight 4:45 AM CDT 9:25 PM CDT
Moon 3:08 PM CDT (5/1) 3:01 AM CDT (5/1)
Length of Visible Light 14h 28m
Length of Day
13h 34m
Waxing Gibbous, 74% of the Moon is Illuminated
May 1
Waxing Gibbous
May 5
Full
May 12
Last Quarter
May 20
New
May 28
First Quarter

Hourly Weather History & Observations

Time (CDT) Temp. Heat Index Dew Point Humidity Pressure Visibility Wind Dir Wind Speed Gust Speed Precip Events Conditions
12:53 AM 73.9 °F - 66.0 °F 76% 29.98 in 10.0 mi SSW 5.8 mph - N/A   Clear
1:53 AM 73.0 °F - 66.0 °F 79% 29.99 in 10.0 mi SSW 3.5 mph - N/A   Clear
2:53 AM 73.0 °F - 66.0 °F 79% 29.97 in 10.0 mi SSW 9.2 mph - N/A   Clear
3:53 AM 72.0 °F - 66.0 °F 81% 29.98 in 10.0 mi SSW 8.1 mph - N/A   Clear
4:53 AM 71.6 °F - 66.2 °F 83% 30.00 in 10.0 mi SSW 4.6 mph - N/A   Clear
5:53 AM 69.1 °F - 66.0 °F 90% 30.00 in 10.0 mi SSW 4.6 mph - N/A   Clear
7:53 AM 71.1 °F - 66.9 °F 87% 30.03 in 10.0 mi South 3.5 mph - N/A   Clear
8:53 AM 75.2 °F - 66.2 °F 73% 30.02 in 10.0 mi SSW 10.4 mph - N/A   Clear
9:53 AM 78.1 °F - 66.9 °F 68% 30.01 in 10.0 mi SSW 12.7 mph - N/A   Clear
10:53 AM 81.0 °F 83.3 °F 66.9 °F 62% 30.00 in 10.0 mi SSW 10.4 mph - N/A   Clear
11:53 AM 82.0 °F 83.8 °F 64.9 °F 56% 29.98 in 10.0 mi SSW 17.3 mph 23.0 mph N/A   Clear
12:53 PM 86.0 °F 87.3 °F 64.0 °F 48% 29.96 in 10.0 mi SSW 13.8 mph 23.0 mph N/A   Clear
1:53 PM 87.1 °F 88.3 °F 64.0 °F 46% 29.94 in 10.0 mi South 17.3 mph 24.2 mph N/A   Clear
2:53 PM 87.1 °F 88.3 °F 64.0 °F 46% 29.92 in 10.0 mi SSW 16.1 mph - N/A   Clear
3:53 PM 88.0 °F 89.3 °F 64.0 °F 45% 29.90 in 10.0 mi South 17.3 mph 21.9 mph N/A   Clear
4:53 PM 87.1 °F 87.5 °F 62.1 °F 43% 29.89 in 10.0 mi South 17.3 mph 23.0 mph N/A   Clear
5:53 PM 86.0 °F 86.3 °F 62.1 °F 44% 29.89 in 10.0 mi South 9.2 mph 19.6 mph N/A   Clear
6:53 PM 80.1 °F 81.7 °F 64.0 °F 58% 29.89 in 10.0 mi South 6.9 mph - N/A   Clear
7:53 PM 77.0 °F - 64.9 °F 66% 29.89 in 10.0 mi SE 5.8 mph - N/A   Clear
8:53 PM 73.9 °F - 64.9 °F 73% 29.91 in 10.0 mi South 5.8 mph - N/A   Clear
9:53 PM 73.0 °F - 64.9 °F 76% 29.92 in 10.0 mi South 6.9 mph - N/A   Clear
10:53 PM 72.0 °F - 64.9 °F 78% 29.93 in 10.0 mi South 5.8 mph - N/A   Clear
11:53 PM 71.1 °F - 64.9 °F 81% 29.93 in 10.0 mi South 5.8 mph - N/A   Clear